sat.trackr.live / text

‹ back to catalog

STARLINK-31558

NORAD 59196 · 2024-045U

PAYLOAD ACTIVE UNKNOWN

§ Identity

Operator
Country
US
Launch date
2024-03-10
Launch site
AFETR
Launch vehicle
Mass (kg)
RCS (m²)

Purposes: comms

External: N2YO · Heavens-Above · Gunter

§ Orbital elements

Epoch: 2026-09-20T04:52:55.763616Z

Period
94.27 min
Inclination
43.0119°
Eccentricity
0.0004985
Mean motion
15.27574171 rev/d
Perigee alt
479.6 km
Apogee alt
486.5 km
Semi-major
6,861.2 km
B*
1.5603e-5
RAAN
73.6927°
Arg perigee
266.3767°
Mean anomaly
93.6514°
Rev number
14,292

§ Raw data

STARLINK-315581 59196U 24045U   26263.20342319  .00000166  00000+0  15603-4 0  99992 59196  43.0119  73.6927 0004985 266.3767  93.6514 15.27574171142923

JSON: /api/v1/satellites/59196 · /tle

For live sub-satellite position, see the globe view (requires WebGL).

§ Visibility from observer

Set your observer location to see the next 7 days of passes ≥ 10°. The values pass through the URL so the page stays shareable.

No JS? Fill the form by hand. The geolocation button needs JavaScript.